Location: Newark
(49.8969°N, 3.3422°E)
Time: 20:51:22
(UTC+00:00)

Explorer 7 - Pass Details

Date: 29 January 2020
Orbit: 485 x 679 km, 50.3° (Epoch: 22 February)

Event Time Altitude Azimuth Distance (km) Brightness Sun altitude
Rises 02:10:44 0° 285° (WNW) 2,554 - -48.8°
Reaches altitude 10° 02:12:57 10° 278° (W) 1,677 - -48.5°
Maximum altitude 02:16:32 42° 207° (SSW) 723 - -48.1°
Drops below altitude 10° 02:20:12 10° 136° (SE) 1,725 - -47.6°
Sets 02:22:31 0° 129° (SE) 2,636 - -47.3°
